This demonstration page uses our WeatherBlox Daily Observations layout. Learn more.

Left ArrowRight Arrow

40.92945, -100.16068

Hourly Observations for October 4, 2021

Temp ( °F °C ) Dew Point ( °F °C ) Humidity (%) Winds ( mph kmh ) Pressure ( in mb ) Visibility ( mi km ) Precip ( " mm )
12:15 am 00:15 Clear 49 9.7 46 7.7 87 87 N N/A 30.08 1019 10 16 N/A
12:35 am 00:35 Clear 49 9.4 46 7.5 88 88 N N/A 30.10 1019 10 16 N/A
12:55 am 00:55 Clear 48 9 46 7.5 90 90 N N/A 30.10 1019 10 16 N/A
1:15 am 01:15 Clear 48 9.1 45 7.4 89 89 N 5 7 30.09 1019 10 16 N/A
1:35 am 01:35 Clear 48 8.8 45 7.3 90 90 N 5 7 30.10 1019 10 16 N/A
1:55 am 01:55 Clear 48 8.9 45 7.2 89 89 NNE 5 7 30.10 1019 10 16 N/A
2:15 am 02:15 Clear 47 8.6 45 7 90 90 NNE 6 9 30.10 1019 10 16 N/A
2:35 am 02:35 Clear 48 9 44 6.8 86 86 N N/A 30.10 1019 10 16 N/A
2:55 am 02:55 Clear 48 9 44 6.6 85 85 N 5 7 30.10 1019 10 16 N/A
3:15 am 03:15 Clear 47 8.4 44 6.6 89 89 N 6 9 30.11 1020 10 16 N/A
3:35 am 03:35 Clear 47 8.5 44 6.5 87 87 N 6 9 30.11 1019 10 16 N/A
3:55 am 03:55 Clear 47 8.3 44 6.5 89 89 NNW 6 9 30.11 1020 10 16 N/A
4:15 am 04:15 Clear 47 8.1 44 6.4 89 89 N N/A 30.11 1020 10 16 N/A
4:35 am 04:35 Clear 48 8.8 44 6.5 86 86 N N/A 30.09 1019 10 16 N/A
4:55 am 04:55 Clear 46 7.6 43 6.3 92 92 N N/A 30.10 1019 10 16 N/A
5:15 am 05:15 Clear 46 7.6 43 6 90 90 N N/A 30.10 1019 10 16 N/A
5:35 am 05:35 Clear 45 7.2 43 5.9 92 92 NW 3 6 30.11 1020 10 16 N/A
5:55 am 05:55 Clear 45 7 42 5.8 92 92 NNW 3 6 30.12 1020 10 16 N/A
6:15 am 06:15 Clear 45 7.1 42 5.7 91 91 NNW 5 7 30.12 1020 10 16 N/A
6:35 am 06:35 Clear 44 6.9 42 5.6 92 92 NW 6 9 30.12 1020 10 16 N/A
6:55 am 06:55 Clear 44 6.7 42 5.5 92 92 W 6 9 30.13 1020 10 16 N/A
7:15 am 07:15 Clear 44 6.8 42 5.8 93 93 W 6 9 30.13 1020 10 16 N/A
7:35 am 07:35 Clear 44 6.8 42 5.5 92 92 WNW 6 9 30.14 1021 10 16 N/A
7:55 am 07:55 Sunny 44 6.8 42 5.8 93 93 WNW 3 6 30.14 1021 10 16 N/A
8:15 am 08:15 Sunny 46 7.5 44 6.4 93 93 WNW 3 6 30.14 1021 10 16 N/A
8:35 am 08:35 Sunny 48 8.9 45 7.3 90 90 WNW 6 9 30.13 1020 10 16 N/A
8:55 am 08:55 Sunny 50 10 47 8.1 88 88 WNW 5 7 30.13 1020 10 16 N/A
9:15 am 09:15 Sunny 52 11.2 48 8.9 86 86 NW 3 6 30.13 1020 10 16 N/A
9:35 am 09:35 Sunny 54 12.3 48 8.9 80 80 N N/A 30.12 1020 10 16 N/A
9:55 am 09:55 Sunny 57 13.9 49 9.5 75 75 N N/A 30.12 1020 10 16 N/A
10:15 am 10:15 Sunny 60 15.3 50 10 71 71 N N/A 30.10 1019 10 16 N/A
10:35 am 10:35 Sunny 64 17.5 51 10.3 63 63 N N/A 30.09 1019 10 16 N/A
10:55 am 10:55 Sunny 67 19.4 51 10.8 58 58 NE 3 6 30.08 1019 10 16 N/A
11:15 am 11:15 Sunny 69 20.6 49 9.3 48 48 NE 3 6 30.08 1019 10 16 N/A
11:35 am 11:35 Sunny 71 21.5 48 9.1 45 45 NE 6 9 30.07 1018 10 16 N/A
11:55 am 11:55 Sunny 72 22.4 48 9.1 43 43 NE 3 6 30.06 1018 10 16 N/A
12:15 pm 12:15 Sunny 74 23.1 49 9.3 42 42 E 5 7 30.05 1017 10 16 N/A
12:35 pm 12:35 Sunny 76 24.3 49 9.3 39 39 NE 5 7 30.04 1017 10 16 N/A
12:55 pm 12:55 Sunny 77 24.9 49 9.6 38 38 E 3 6 30.03 1017 10 16 N/A
1:15 pm 13:15 Sunny 79 25.9 46 8 32 32 ENE 6 9 30.02 1017 10 16 N/A
1:35 pm 13:35 Sunny 79 26 46 7.7 31 31 ENE 8 13 30.01 1016 10 16 N/A
1:55 pm 13:55 Sunny 80 26.4 45 7 29 29 E 6 9 30.00 1016 10 16 N/A
2:15 pm 14:15 Sunny 80 26.5 44 6.5 28 28 NE 5 7 30.00 1016 10 16 N/A
2:35 pm 14:35 Sunny 80 26.7 45 7 29 29 E 6 9 29.99 1015 10 16 N/A
2:55 pm 14:55 Sunny 81 27.1 45 7.1 28 28 ENE 5 7 29.97 1015 7 11 N/A
3:15 pm 15:15 Sunny 81 27.2 40 4.6 23 23 ENE 5 7 29.97 1015 10 16 N/A
3:35 pm 15:35 Sunny 81 27.3 43 6.1 26 26 NE 6 9 29.97 1015 10 16 N/A
3:55 pm 15:55 Sunny 81 27.2 43 5.9 26 26 ENE 8 13 29.97 1015 10 16 N/A
4:15 pm 16:15 Sunny 81 27.2 41 4.8 24 24 E 6 9 29.97 1015 10 16 N/A
4:35 pm 16:35 Sunny 81 27.1 43 6.1 26 26 ENE 6 9 29.98 1015 10 16 N/A
4:55 pm 16:55 Sunny 80 26.7 44 6.9 28 28 ENE 7 11 29.98 1015 10 16 N/A
5:15 pm 17:15 Sunny 80 26.6 44 6.9 29 29 ENE 8 13 29.99 1015 10 16 N/A
5:35 pm 17:35 Sunny 79 25.9 46 7.9 32 32 E 6 9 29.99 1016 10 16 N/A
5:55 pm 17:55 Sunny 77 25 46 7.9 34 34 E 8 13 30.00 1016 10 16 N/A
6:15 pm 18:15 Sunny 76 24.3 43 6.3 31 31 E 6 9 30.01 1016 7 11 N/A
6:35 pm 18:35 Mostly Cloudy with Haze 73 22.7 47 8.6 41 41 E 6 9 30.03 1017 1 2 N/A
6:55 pm 18:55 Mostly Cloudy with Haze 71 21.7 45 7.2 39 39 E 6 9 30.04 1017 1 1 N/A
7:15 pm 19:15 Mostly Cloudy with Haze 70 21 44 6.8 40 40 E 5 7 30.04 1017 1 1 N/A
7:35 pm 19:35 Mostly Cloudy with Haze 67 19.7 44 6.8 43 43 E 6 9 30.05 1018 2 3 N/A
7:55 pm 19:55 Hazy 65 18.6 45 7.1 47 47 E 5 7 30.06 1018 4 6 N/A
8:15 pm 20:15 Clear 63 17.2 45 7.3 52 52 ENE 6 9 30.09 1019 7 11 N/A
8:35 pm 20:35 Hazy 59 15.1 47 8.2 64 64 ENE 7 11 30.10 1019 4 6 N/A
8:55 pm 20:55 Clear 58 14.6 46 8 65 65 ENE 6 9 30.12 1020 7 11 N/A
9:15 pm 21:15 Clear 58 14.5 46 7.5 63 63 N N/A 30.13 1020 10 16 N/A
9:35 pm 21:35 Clear 56 13.4 46 7.7 69 69 N N/A 30.15 1021 10 16 N/A
9:55 pm 21:55 Clear 55 13 46 8 72 72 N N/A 30.15 1021 10 16 N/A
10:15 pm 22:15 Clear 53 11.4 47 8.5 83 83 N N/A 30.17 1022 10 16 N/A
10:35 pm 22:35 Clear 53 11.7 48 8.9 83 83 N N/A 30.18 1022 10 16 N/A
10:55 pm 22:55 Clear 52 11.2 47 8.5 84 84 N N/A 30.18 1022 10 16 N/A
11:15 pm 23:15 Clear 49 9.6 46 8 90 90 N N/A 30.19 1023 10 16 N/A
11:35 pm 23:35 Clear 50 10.1 46 7.6 85 85 N N/A 30.19 1022 10 16 N/A
11:55 pm 23:55 Clear 50 9.8 46 7.6 86 86 N N/A 30.20 1023 10 16 N/A

Powered by AerisWeather